| time (UTC) | temp F | wind direction | speed MPH | gust MPH | rain 1hr in | rain 24hr in | rain mn in | humidity % | barometer mb |
| 20260906040035 | 72 | 34 | 0.0 | 0.0 | 0.00 | 0.08 | 0.08 | 81 | 1012.9 |
| 20260906034532 | 72 | 125 | 0.0 | 0.0 | 0.00 | 0.08 | 0.08 | 81 | 1013.0 |
| 20260906033028 | 72 | 125 | 0.0 | 0.0 | 0.00 | 0.08 | 0.08 | 81 | 1013.1 |
| 20260906031548 | 72 | 125 | 0.0 | 0.0 | 0.00 | 0.08 | 0.08 | 81 | 1012.9 |
| 20260906030028 | 72 | 121 | 0.0 | 1.0 | 0.00 | 0.08 | 0.08 | 82 | 1013.0 |
| 20260906024532 | 72 | 121 | 0.0 | 2.0 | 0.00 | 0.08 | 0.08 | 80 | 1012.8 |
| 20260906023026 | 72 | 121 | 0.0 | 1.0 | 0.00 | 0.08 | 0.08 | 76 | 1012.7 |
| 20260906021527 | 73 | 124 | 0.0 | 1.0 | 0.00 | 0.08 | 0.08 | 75 | 1012.5 |
| 20260906020027 | 73 | 124 | 0.0 | 3.0 | 0.00 | 0.08 | 0.08 | 74 | 1012.7 |
| 20260906014527 | 74 | 130 | 0.0 | 0.0 | 0.00 | 0.08 | 0.08 | 72 | 1012.5 |
| 20260906013026 | 74 | 130 | 0.0 | 0.0 | 0.00 | 0.08 | 0.08 | 71 | 1012.4 |
| 20260906011526 | 74 | 130 | 0.0 | 0.0 | 0.00 | 0.08 | 0.08 | 69 | 1012.3 |
| 20260906010026 | 75 | 130 | 0.0 | 0.0 | 0.00 | 0.08 | 0.08 | 69 | 1012.1 |
| 20260906004525 | 75 | 140 | 0.0 | 2.0 | 0.00 | 0.08 | 0.08 | 68 | 1012.2 |
| 20260906003025 | 76 | 321 | 0.0 | 1.0 | 0.00 | 0.08 | 0.08 | 68 | 1012.0 |
| 20260906001524 | 76 | 321 | 0.0 | 0.0 | 0.00 | 0.08 | 0.08 | 67 | 1011.6 |
| 20260906000025 | 77 | 321 | 0.0 | 0.0 | 0.00 | 0.08 | 0.08 | 67 | 1011.6 |
| 20260905234524 | 78 | 320 | 0.0 | 0.0 | 0.00 | 0.08 | 0.08 | 66 | 1011.4 |
| 20260905233023 | 79 | 321 | 0.0 | 0.0 | 0.00 | 0.08 | 0.08 | 65 | 1011.4 |
| 20260905231533 | 80 | 319 | 0.0 | 0.0 | 0.00 | 0.08 | 0.08 | 63 | 1011.3 |
| 20260905230025 | 82 | 319 | 0.0 | 0.0 | 0.00 | 0.08 | 0.08 | 60 | 1011.3 |
| 20260905224624 | 84 | 319 | 0.0 | 0.0 | 0.00 | 0.08 | 0.08 | 57 | 1011.2 |
| 20260905223023 | 84 | 319 | 0.0 | 0.0 | 0.00 | 0.08 | 0.08 | 56 | 1011.1 |
| 20260905221523 | 83 | 300 | 0.0 | 4.0 | 0.00 | 0.08 | 0.08 | 59 | 1011.2 |
| 20260905220021 | 82 | 235 | 1.0 | 4.0 | 0.00 | 0.08 | 0.08 | 59 | 1011.1 |
| 20260905214521 | 82 | 225 | 2.0 | 5.0 | 0.00 | 0.08 | 0.08 | 60 | 1011.3 |
| 20260905213020 | 80 | 271 | 2.0 | 6.0 | 0.00 | 0.08 | 0.08 | 61 | 1011.6 |
| 20260905211519 | 79 | 202 | 2.0 | 4.0 | 0.00 | 0.08 | 0.08 | 64 | 1011.5 |
| 20260905210019 | 78 | 279 | 0.0 | 3.0 | 0.00 | 0.08 | 0.08 | 65 | 1011.5 |
| 20260905204518 | 76 | 159 | 0.0 | 3.0 | 0.00 | 0.08 | 0.08 | 68 | 1012.0 |
| 20260905203017 | 74 | 22 | 0.0 | 0.0 | 0.00 | 0.08 | 0.08 | 76 | 1012.2 |
| 20260905201516 | 73 | 15 | 0.0 | 3.0 | 0.00 | 0.08 | 0.08 | 77 | 1012.3 |
| 20260905200016 | 73 | 20 | 1.0 | 3.0 | 0.00 | 0.08 | 0.08 | 76 | 1012.4 |
| 20260905194516 | 72 | 30 | 0.0 | 5.0 | 0.01 | 0.08 | 0.08 | 74 | 1012.5 |
| 20260905193015 | 72 | 155 | 4.0 | 9.0 | 0.01 | 0.08 | 0.08 | 75 | 1012.9 |
| 20260905191514 | 72 | 9 | 1.0 | 5.0 | 0.07 | 0.08 | 0.08 | 70 | 1012.7 |
| 20260905190026 | 72 | 22 | 1.0 | 5.0 | 0.08 | 0.08 | 0.08 | 68 | 1012.7 |
| 20260905184514 | 72 | 351 | 1.0 | 5.0 | 0.07 | 0.07 | 0.07 | 66 | 1012.3 |
| 20260905183016 | 74 | 278 | 0.0 | 3.0 | 0.07 | 0.07 | 0.07 | 63 | 1012.8 |
| 20260905181513 | 82 | 314 | 1.0 | 15.0 | 0.01 | 0.01 | 0.01 | 46 | 1012.7 |
| 20260905180011 | 94 | 37 | 4.0 | 16.0 | 0.00 | 0.00 | 0.00 | 37 | 1012.6 |
| 20260905174507 | 94 | 288 | 1.0 | 6.0 | 0.00 | 0.00 | 0.00 | 39 | 1012.5 |
| 20260905173004 | 93 | 333 | 0.0 | 2.0 | 0.00 | 0.00 | 0.00 | 43 | 1013.1 |
| 20260905171502 | 93 | 239 | 0.0 | 4.0 | 0.00 | 0.00 | 0.00 | 41 | 1013.0 |
| 20260905170001 | 93 | 309 | 0.0 | 5.0 | 0.00 | 0.00 | 0.00 | 43 | 1013.1 |
| 20260905164603 | 92 | 323 | 0.0 | 2.0 | 0.00 | 0.00 | 0.00 | 45 | 1013.1 |
| 20260905163056 | 92 | 334 | 0.0 | 5.0 | 0.00 | 0.00 | 0.00 | 45 | 1013.6 |
| 20260905161554 | 92 | 232 | 0.0 | 1.0 | 0.00 | 0.00 | 0.00 | 45 | 1013.7 |
| 20260905160058 | 91 | 342 | 0.0 | 0.0 | 0.00 | 0.00 | 0.00 | 47 | 1013.8 |
| 20260905154555 | 90 | 238 | 0.0 | 0.0 | 0.00 | 0.00 | 0.00 | 47 | 1013.7 |
| 20260905153047 | 89 | 284 | 0.0 | 0.0 | 0.00 | 0.00 | 0.00 | 51 | 1013.9 |
| 20260905151545 | 89 | 265 | 0.0 | 1.0 | 0.00 | 0.00 | 0.00 | 54 | 1013.7 |
| 20260905150044 | 87 | 223 | 0.0 | 2.0 | 0.00 | 0.00 | 0.00 | 60 | 1013.8 |
| 20260905144540 | 87 | 231 | 0.0 | 2.0 | 0.00 | 0.00 | 0.00 | 60 | 1013.9 |
| 20260905143035 | 85 | 235 | 0.0 | 0.0 | 0.00 | 0.00 | 0.00 | 61 | 1014.1 |
| 20260905141533 | 84 | 211 | 0.0 | 0.0 | 0.00 | 0.00 | 0.00 | 63 | 1014.0 |
| 20260905140032 | 83 | 188 | 0.0 | 4.0 | 0.00 | 0.00 | 0.00 | 65 | 1014.0 |
| 20260905134530 | 83 | 168 | 0.0 | 0.0 | 0.00 | 0.00 | 0.00 | 64 | 1014.0 |
| 20260905133028 | 81 | 171 | 0.0 | 0.0 | 0.00 | 0.00 | 0.00 | 66 | 1014.0 |
| 20260905131522 | 80 | 252 | 0.0 | 0.0 | 0.00 | 0.00 | 0.00 | 70 | 1014.1 |
| 20260905130019 | 77 | 61 | 0.0 | 0.0 | 0.00 | 0.00 | 0.00 | 74 | 1014.1 |
| 20260905124515 | 75 | 67 | 0.0 | 0.0 | 0.00 | 0.00 | 0.00 | 77 | 1014.1 |
| 20260905123010 | 74 | 66 | 0.0 | 0.0 | 0.00 | 0.00 | 0.00 | 82 | 1014.1 |
| 20260905121508 | 73 | 63 | 0.0 | 0.0 | 0.00 | 0.00 | 0.00 | 83 | 1014.0 |
| 20260905120014 | 72 | 59 | 0.0 | 0.0 | 0.00 | 0.00 | 0.00 | 82 | 1013.9 |
| 20260905114504 | 71 | 59 | 0.0 | 0.0 | 0.00 | 0.00 | 0.00 | 82 | 1013.7 |
| 20260905113003 | 71 | 59 | 0.0 | 0.0 | 0.00 | 0.00 | 0.00 | 82 | 1013.5 |
| 20260905111653 | 71 | 59 | 0.0 | 0.0 | 0.00 | 0.00 | 0.00 | 82 | 1013.2 |
| 20260905110100 | 71 | 59 | 0.0 | 0.0 | 0.00 | 0.00 | 0.00 | 82 | 1013.1 |
| 20260905104559 | 71 | 59 | 0.0 | 0.0 | 0.00 | 0.00 | 0.00 | 82 | 1013.0 |
| 20260905103102 | 71 | 59 | 0.0 | 0.0 | 0.00 | 0.00 | 0.00 | 81 | 1013.0 |
| 20260905101556 | 71 | 59 | 0.0 | 0.0 | 0.00 | 0.00 | 0.00 | 81 | 1013.0 |
| 20260905100058 | 71 | 59 | 0.0 | 0.0 | 0.00 | 0.00 | 0.00 | 81 | 1013.0 |
| 20260905094553 | 72 | 59 | 0.0 | 0.0 | 0.00 | 0.00 | 0.00 | 80 | 1012.9 |
| 20260905093107 | 72 | 59 | 0.0 | 0.0 | 0.00 | 0.00 | 0.00 | 80 | 1012.8 |
| 20260905091555 | 72 | 59 | 0.0 | 0.0 | 0.00 | 0.00 | 0.00 | 80 | 1012.8 |
| 20260905090052 | 72 | 59 | 0.0 | 0.0 | 0.00 | 0.00 | 0.00 | 79 | 1012.8 |
| 20260905084553 | 73 | 59 | 0.0 | 0.0 | 0.00 | 0.00 | 0.00 | 80 | 1013.0 |
| 20260905083049 | 72 | 59 | 0.0 | 0.0 | 0.00 | 0.00 | 0.00 | 77 | 1013.1 |
| 20260905081549 | 73 | 59 | 0.0 | 0.0 | 0.00 | 0.00 | 0.00 | 76 | 1013.1 |
| 20260905080049 | 73 | 59 | 0.0 | 0.0 | 0.00 | 0.00 | 0.00 | 76 | 1013.3 |
| 20260905074547 | 73 | 59 | 0.0 | 0.0 | 0.00 | 0.00 | 0.00 | 75 | 1013.5 |
| 20260905073047 | 73 | 59 | 0.0 | 0.0 | 0.00 | 0.00 | 0.00 | 75 | 1013.5 |
| 20260905071548 | 73 | 59 | 0.0 | 0.0 | 0.00 | 0.00 | 0.00 | 73 | 1013.5 |
| 20260905070053 | 74 | 60 | 0.0 | 0.0 | 0.00 | 0.00 | 0.00 | 72 | 1013.8 |
| 20260905064558 | 74 | 71 | 0.0 | 0.0 | 0.00 | 0.00 | 0.00 | 72 | 1014.0 |
| 20260905063043 | 74 | 77 | 0.0 | 0.0 | 0.00 | 0.00 | 0.00 | 72 | 1014.2 |
| 20260905061542 | 74 | 72 | 0.0 | 0.0 | 0.00 | 0.00 | 0.00 | 72 | 1014.3 |
| 20260905060043 | 75 | 76 | 0.0 | 0.0 | 0.00 | 0.00 | 0.00 | 71 | 1014.6 |
| 20260905054548 | 75 | 74 | 0.0 | 0.0 | 0.00 | 0.00 | 0.00 | 71 | 1014.9 |
| 20260905053043 | 75 | 70 | 0.0 | 0.0 | 0.00 | 0.00 | 0.00 | 71 | 1015.0 |
| 20260905051546 | 75 | 68 | 0.0 | 0.0 | 0.00 | 0.00 | 0.00 | 71 | 1014.8 |
| 20260905050043 | 75 | 26 | 0.0 | 1.0 | 0.00 | 0.00 | 0.00 | 71 | 1014.7 |
| 20260905044540 | 75 | 26 | 0.0 | 1.0 | 0.00 | 0.00 | 0.00 | 70 | 1014.8 |
| 20260905043040 | 76 | 28 | 0.0 | 0.0 | 0.00 | 0.00 | 0.00 | 69 | 1014.8 |
| 20260905041540 | 76 | 29 | 0.0 | 0.0 | 0.00 | 0.00 | 0.00 | 68 | 1014.7 |